period_start,C,m1,H,J0,J1,J2,J3,J4,J5,JA,JB,JC,JD,JJ,JK,JN,#
2013-08-04 00:00:30,-0.00,0.26,0.00,26.18,29.15,31.49,5.90,31.17,1012.22,2045.00,3400.99,3260.92,3545.04,349.99,319.13,33.92,0000 0000 0000 0000 000000
2013-08-04 00:01:30,0.00,0.26,0.00,26.14,29.15,31.50,5.83,31.21,1012.22,2045.00,3400.99,3260.95,3545.03,349.41,318.59,33.93,0000 0000 0000 0000 000000
2013-08-04 00:02:31,0.00,0.26,0.00,26.14,29.15,31.53,5.92,31.42,1012.23,2045.00,3400.99,3260.96,3545.04,349.88,319.08,33.93,0000 0000 0000 0000 000000
2013-08-04 00:03:31,0.00,0.26,0.00,26.22,29.15,31.49,5.98,31.42,1012.22,2045.00,3400.99,3260.97,3545.04,349.88,319.00,33.94,0000 0000 0000 0000 000000
2013-08-04 00:04:31,0.00,0.26,0.00,26.35,29.15,31.50,5.85,31.25,1012.22,2045.00,3400.99,3260.97,3545.04,350.05,318.73,33.95,0000 0000 0000 0000 000000
2013-08-04 00:05:32,0.00,0.26,0.00,26.36,29.15,31.49,5.81,31.08,1012.22,2045.00,3400.98,3260.97,3545.04,349.62,318.73,33.95,0000 0000 0000 0000 000000
2013-08-04 00:06:32,0.00,0.26,0.00,26.34,29.15,31.51,5.82,31.17,1012.22,2045.00,3400.99,3260.98,3545.05,350.38,319.11,33.96,0000 0000 0000 0000 000000
2013-08-04 00:07:32,0.00,0.26,0.00,26.40,29.15,31.50,5.90,31.00,1012.22,2045.00,3400.97,3260.97,3545.03,349.92,318.99,33.96,0000 0000 0000 0000 000000
2013-08-04 00:08:32,0.00,0.26,0.00,26.43,29.15,31.50,5.80,31.29,1012.22,2045.00,3400.98,3260.94,3545.05,348.99,317.96,33.97,0000 0000 0000 0000 000000
2013-08-04 00:09:33,0.00,0.26,0.00,26.43,29.15,31.46,5.95,31.21,1012.22,2045.01,3400.98,3260.94,3545.04,349.94,318.84,33.98,0000 0000 0000 0000 000000
2013-08-04 00:10:33,0.00,0.26,0.00,26.42,29.15,31.50,5.90,31.33,1012.22,2045.00,3400.98,3260.95,3545.03,349.05,318.17,33.98,0000 0000 0000 0000 000000
2013-08-04 00:11:33,0.00,0.26,0.00,26.40,29.15,31.51,5.89,31.04,1012.21,2045.00,3400.99,3260.94,3545.04,350.84,319.43,33.99,0000 0000 0000 0000 000000
2013-08-04 00:12:34,0.01,0.26,0.00,26.42,29.15,31.53,5.86,31.08,1012.22,2045.00,3400.79,3260.53,3545.03,349.79,318.86,33.99,0000 0000 0000 0000 000000
2013-08-04 00:13:34,0.12,0.26,0.00,26.43,29.15,31.53,5.87,31.13,1012.21,2045.00,3400.42,3260.18,3544.96,349.81,318.69,34.00,0000 0000 0000 0000 000000
2013-08-04 00:14:34,0.12,0.26,0.00,26.45,29.15,31.52,5.93,31.25,1012.22,2045.00,3400.17,3260.07,3544.88,350.34,319.16,34.00,0000 0000 0000 0000 000000
2013-08-04 00:15:34,0.06,0.26,0.00,26.42,29.15,31.55,5.88,31.13,1012.21,2045.00,3400.09,3260.02,3544.85,349.65,318.55,34.01,0000 0000 0000 0000 000000
2013-08-04 00:16:35,0.03,0.26,0.00,26.39,29.15,31.55,5.93,31.38,1012.21,2045.00,3400.08,3260.00,3544.74,350.11,319.01,34.02,0000 0000 0000 0000 000000
2013-08-04 00:17:35,0.01,0.26,0.00,26.45,29.15,31.53,5.89,31.29,1012.22,2045.00,3400.06,3260.00,3544.65,349.98,318.84,34.02,0000 0000 0000 0000 000000
2013-08-04 00:18:35,0.02,0.26,0.00,26.48,29.15,31.54,5.84,31.21,1012.21,2045.00,3400.02,3260.00,3544.39,349.14,318.03,34.03,0000 0000 0000 0000 000000
2013-08-04 00:19:35,0.03,0.26,0.00,26.46,29.15,31.55,5.82,31.13,1012.22,2045.00,3400.01,3259.99,3544.27,349.41,318.57,34.03,0000 0000 0000 0000 000000
2013-08-04 00:20:36,0.01,0.26,0.00,26.46,29.15,31.55,5.83,31.13,1012.21,2045.00,3400.03,3259.99,3544.28,349.58,318.68,34.04,0000 0000 0000 0000 000000
2013-08-04 00:21:36,0.00,0.26,0.00,26.47,29.15,31.54,5.88,31.08,1012.19,2045.00,3400.01,3259.99,3544.26,350.06,319.17,34.05,0000 0000 0000 0000 000000
2013-08-04 00:22:36,0.00,0.26,0.00,26.46,29.15,31.55,5.76,31.33,1012.16,2045.00,3400.02,3259.99,3544.28,349.03,317.82,34.05,0000 0000 0000 0000 000000
2013-08-04 00:23:37,0.00,0.26,0.00,26.46,29.15,31.59,5.85,31.08,1012.12,2045.01,3400.03,3259.99,3544.24,349.66,318.50,34.06,0000 0000 0000 0000 000000
2013-08-04 00:24:37,0.01,0.26,0.00,26.45,29.15,31.60,5.91,30.96,1012.01,2045.01,3400.04,3259.99,3544.25,350.25,319.01,34.06,0000 0000 0000 0000 000000
2013-08-04 00:25:37,-0.01,0.26,0.00,26.47,29.15,31.55,6.02,31.21,1011.86,2045.00,3400.03,3259.99,3544.27,351.10,319.72,34.07,0000 0000 0000 0000 000000
2013-08-04 00:26:37,-0.01,0.26,0.00,26.42,29.15,31.58,6.00,31.13,1011.80,2045.01,3400.04,3259.99,3544.34,350.05,319.09,34.08,0000 0000 0000 0000 000000
2013-08-04 00:27:37,0.00,0.26,0.00,26.45,29.15,31.56,5.97,31.08,1011.81,2045.00,3400.03,3259.99,3544.28,350.89,319.54,34.08,0000 0000 0000 0000 000000
2013-08-04 00:28:38,0.01,0.26,0.00,26.52,29.15,31.57,5.99,31.33,1011.78,2045.00,3400.01,3259.99,3544.16,350.55,319.15,34.09,0000 0000 0000 0000 000000
2013-08-04 00:29:38,0.01,0.26,0.00,26.52,29.15,31.58,5.78,31.08,1011.85,2045.00,3400.00,3259.99,3544.14,349.51,318.21,34.09,0000 0000 0000 0000 000000
2013-08-04 00:30:38,0.00,0.26,0.00,26.48,29.15,31.59,5.73,31.08,1011.83,2045.00,3400.01,3259.99,3544.11,349.01,317.79,34.10,0000 0000 0000 0000 000000
2013-08-04 00:31:38,0.00,0.26,0.00,26.51,29.16,31.58,5.80,31.25,1011.90,2045.00,3400.01,3259.99,3544.06,349.68,318.28,34.10,0000 0000 0000 0000 000000
2013-08-04 00:32:39,0.00,0.26,0.00,26.53,29.16,31.60,5.83,31.13,1011.88,2045.00,3400.00,3259.99,3544.05,348.82,317.58,34.11,0000 0000 0000 0000 000000
2013-08-04 00:33:39,0.00,0.26,0.00,26.49,29.17,31.60,5.92,31.33,1011.90,2045.00,3400.00,3259.99,3544.10,349.86,318.58,34.12,0000 0000 0000 0000 000000
2013-08-04 00:34:39,0.00,0.26,0.00,26.45,29.17,31.62,5.83,31.00,1011.78,2045.00,3400.00,3259.99,3544.09,350.67,319.17,34.12,0000 0000 0000 0000 000000
2013-08-04 00:35:40,0.00,0.26,0.00,26.47,29.17,31.61,5.84,31.04,1011.76,2045.00,3400.01,3259.99,3544.09,349.95,318.64,34.13,0000 0000 0000 0000 000000
2013-08-04 00:36:40,0.00,0.26,0.00,26.47,29.17,31.59,5.89,31.25,1011.74,2045.00,3400.00,3259.99,3544.06,350.39,319.03,34.13,0000 0000 0000 0000 000000
2013-08-04 00:37:40,0.00,0.26,0.00,26.47,29.17,31.59,5.98,31.17,1011.79,2045.00,3400.00,3259.99,3544.04,350.02,318.69,34.14,0000 0000 0000 0000 000000
2013-08-04 00:38:40,0.00,0.26,0.00,26.50,29.17,31.59,5.86,31.21,1011.78,2045.00,3400.00,3259.99,3544.03,348.66,317.77,34.15,0000 0000 0000 0000 000000
2013-08-04 00:39:40,0.00,0.26,0.00,26.51,29.17,31.61,5.94,31.17,1011.76,2045.00,3400.00,3259.98,3544.07,350.79,318.62,34.15,0000 0000 0000 0000 000000
2013-08-04 00:40:41,0.00,0.26,0.00,26.40,29.17,31.60,5.93,31.25,1011.75,2045.00,3400.00,3259.98,3544.06,350.61,319.30,34.16,0000 0000 0000 0000 000000
2013-08-04 00:41:41,0.00,0.26,0.00,26.31,29.17,31.61,5.99,31.29,1011.75,2045.00,3400.00,3259.99,3544.04,350.47,319.28,34.16,0000 0000 0000 0000 000000
2013-08-04 00:42:41,0.00,0.26,0.00,26.37,29.17,31.61,5.94,31.58,1011.76,2045.00,3400.00,3259.98,3544.01,350.42,319.18,34.17,0000 0000 0000 0000 000000
2013-08-04 00:43:41,0.00,0.26,0.00,26.44,29.17,31.63,5.88,31.21,1011.78,2045.00,3400.02,3259.99,3544.03,349.85,318.21,34.17,0000 0000 0000 0000 000000
2013-08-04 00:44:42,0.00,0.26,0.00,26.48,29.17,31.64,6.03,31.54,1011.76,2045.00,3400.01,3259.98,3544.04,350.29,319.01,34.18,0000 0000 0000 0000 000000
2013-08-04 00:45:42,0.00,0.26,0.00,26.47,29.17,31.65,5.95,31.38,1011.78,2045.00,3400.00,3259.99,3544.04,350.03,319.09,34.19,0000 0000 0000 0000 000000
2013-08-04 00:46:42,0.00,0.26,0.00,26.47,29.17,31.65,5.90,31.25,1011.76,2045.00,3400.00,3259.99,3544.08,350.22,318.54,34.19,0000 0000 0000 0000 000000
2013-08-04 00:47:43,-0.01,0.26,0.00,26.48,29.17,31.65,5.88,31.21,1011.77,2045.00,3400.04,3259.99,3544.10,350.42,319.06,34.20,0000 0000 0000 0000 000000
2013-08-04 00:48:43,-0.00,0.26,0.00,26.48,29.17,31.63,5.91,31.29,1011.77,2045.00,3400.02,3259.99,3544.06,349.67,318.55,34.20,0000 0000 0000 0000 000000
2013-08-04 00:49:43,0.00,0.26,0.00,26.44,29.17,31.62,5.84,31.33,1011.75,2045.00,3400.01,3259.99,3544.03,350.56,319.18,34.21,0000 0000 0000 0000 000000
2013-08-04 00:50:43,0.00,0.26,0.00,26.48,29.17,31.61,5.80,30.96,1011.74,2045.00,3400.00,3259.99,3544.03,349.78,318.46,34.22,0000 0000 0000 0000 000000
2013-08-04 00:51:43,0.00,0.26,0.00,26.48,29.18,31.63,5.85,31.13,1011.77,2045.00,3400.03,3259.99,3544.03,350.12,318.93,34.22,0000 0000 0000 0000 000000
2013-08-04 00:52:44,0.00,0.26,0.00,26.52,29.18,31.63,5.98,31.17,1011.75,2045.00,3400.02,3259.99,3544.03,350.30,318.91,34.23,0000 0000 0000 0000 000000
2013-08-04 00:53:44,0.00,0.26,0.00,26.55,29.19,31.63,5.90,31.25,1011.73,2045.00,3400.00,3259.99,3544.01,350.00,318.60,34.23,0000 0000 0000 0000 000000
2013-08-04 00:54:44,0.00,0.26,0.00,26.54,29.19,31.64,5.75,30.96,1011.73,2045.00,3400.00,3259.98,3544.02,349.76,318.37,34.24,0000 0000 0000 0000 000000
2013-08-04 00:55:44,0.00,0.26,0.00,26.51,29.19,31.65,5.94,31.13,1011.73,2045.00,3400.02,3259.99,3544.04,350.06,318.69,34.25,0000 0000 0000 0000 000000
2013-08-04 00:56:44,0.00,0.26,0.00,26.54,29.20,31.65,5.95,31.25,1011.73,2045.00,3400.00,3259.99,3544.02,350.23,318.81,34.25,0000 0000 0000 0000 000000
2013-08-04 00:57:45,0.00,0.26,0.00,26.54,29.20,31.65,5.98,31.13,1011.73,2045.00,3400.00,3259.98,3544.02,350.87,319.40,34.26,0000 0000 0000 0000 000000
2013-08-04 00:58:45,0.00,0.26,0.00,26.54,29.20,31.67,5.92,31.25,1011.74,2045.00,3400.00,3259.99,3544.00,350.15,318.75,34.26,0000 0000 0000 0000 000000
2013-08-04 00:59:45,0.00,0.26,0.00,26.55,29.20,31.70,5.82,31.33,1011.75,2045.00,3400.00,3259.98,3544.01,349.44,318.36,34.27,0000 0000 0000 0000 000000
2013-08-04 01:00:45,0.00,0.26,0.00,26.55,29.20,31.71,5.93,31.33,1011.74,2045.00,3400.00,3259.97,3544.01,349.73,318.40,34.27,0000 0000 0000 0000 000000
2013-08-04 01:01:45,0.00,0.26,0.00,26.45,29.20,31.68,5.86,31.29,1011.73,2045.00,3400.00,3259.97,3544.00,349.60,318.20,34.28,0000 0000 0000 0000 000000
2013-08-04 01:02:45,0.00,0.26,0.00,26.47,29.20,31.64,5.89,31.17,1011.73,2045.00,3400.00,3259.97,3544.01,349.21,318.38,34.29,0000 0000 0000 0000 000000
2013-08-04 01:03:46,0.00,0.26,0.00,26.55,29.20,31.65,6.03,31.33,1011.74,2045.00,3400.00,3259.94,3544.00,350.72,319.24,34.29,0000 0000 0000 0000 000000
2013-08-04 01:04:46,0.01,0.26,0.00,26.59,29.20,31.65,5.87,31.21,1011.74,2045.00,3399.99,3259.90,3544.00,349.84,318.36,34.30,0000 0000 0000 0000 000000
2013-08-04 01:05:46,0.01,0.26,0.00,26.60,29.20,31.66,5.94,31.29,1011.73,2045.00,3399.99,3259.85,3544.00,349.84,318.57,34.30,0000 0000 0000 0000 000000
2013-08-04 01:06:47,0.00,0.26,0.00,26.64,29.20,31.66,5.80,31.25,1011.76,2045.00,3399.99,3259.90,3544.00,348.86,317.47,34.31,0000 0000 0000 0000 000000
2013-08-04 01:07:47,-0.01,0.26,0.00,26.63,29.20,31.66,5.85,30.96,1011.74,2045.00,3399.99,3259.85,3544.00,349.34,317.91,34.32,0000 0000 0000 0000 000000
2013-08-04 01:08:47,0.01,0.26,0.00,26.59,29.21,31.65,5.83,31.13,1011.73,2045.00,3399.99,3259.77,3544.00,350.21,318.26,34.32,0000 0000 0000 0000 000000
2013-08-04 01:09:47,0.01,0.26,0.00,26.54,29.22,31.68,5.88,31.08,1011.73,2045.00,3399.99,3259.83,3544.00,349.99,318.58,34.33,0000 0000 0000 0000 000000
2013-08-04 01:10:47,-0.01,0.26,0.00,26.57,29.22,31.69,5.85,31.08,1011.73,2045.00,3399.99,3259.88,3544.00,350.42,318.96,34.33,0000 0000 0000 0000 000000
2013-08-04 01:11:48,-0.00,0.26,0.00,26.61,29.22,31.69,5.94,31.25,1011.73,2045.00,3399.99,3259.81,3544.00,348.93,317.56,34.34,0000 0000 0000 0000 000000
2013-08-04 01:12:48,0.01,0.26,0.00,26.54,29.22,31.70,5.98,31.29,1011.73,2045.00,3399.99,3259.90,3544.00,349.50,318.14,34.34,0000 0000 0000 0000 000000
2013-08-04 01:13:48,-0.02,0.26,0.00,26.44,29.22,31.73,5.82,31.08,1011.73,2044.99,3399.99,3259.93,3544.00,349.29,318.44,34.35,0000 0000 0000 0000 000000
2013-08-04 01:14:48,-0.01,0.26,0.00,26.42,29.22,31.69,5.85,31.25,1011.73,2044.99,3399.98,3259.85,3544.00,349.50,318.23,34.36,0000 0000 0000 0000 000000
2013-08-04 01:15:49,0.02,0.26,0.00,26.50,29.22,31.66,5.89,31.29,1011.73,2044.99,3399.99,3259.71,3544.00,348.76,317.52,34.36,0000 0000 0000 0000 000000
2013-08-04 01:16:49,0.03,0.26,0.00,26.53,29.22,31.67,5.82,31.25,1011.73,2044.99,3399.99,3259.68,3544.00,350.02,318.97,34.37,0000 0000 0000 0000 000000
2013-08-04 01:17:49,-0.00,0.26,0.00,26.55,29.22,31.66,5.97,31.21,1011.73,2044.98,3399.98,3259.61,3544.00,350.29,318.86,34.37,0000 0000 0000 0000 000000
2013-08-04 01:18:49,0.03,0.26,0.00,26.58,29.22,31.69,5.86,31.17,1011.73,2044.98,3399.97,3259.51,3544.00,349.21,317.52,34.38,0000 0000 0000 0000 000000
2013-08-04 01:19:50,0.02,0.26,0.00,26.60,29.23,31.64,5.94,31.00,1011.73,2044.99,3399.95,3259.44,3544.00,349.71,318.28,34.39,0000 0000 0000 0000 000000
2013-08-04 01:20:50,0.01,0.26,0.00,26.61,29.24,31.67,5.89,31.17,1011.73,2044.99,3399.98,3259.52,3544.00,350.64,319.13,34.39,0000 0000 0000 0000 000000
2013-08-04 01:21:50,-0.02,0.26,0.00,26.55,29.24,31.67,5.96,31.38,1011.73,2044.99,3399.99,3259.61,3544.00,350.32,319.36,34.40,0000 0000 0000 0000 000000
2013-08-04 01:22:50,-0.01,0.26,0.00,26.48,29.25,31.68,5.95,31.21,1011.73,2044.99,3399.98,3259.59,3544.00,350.12,317.89,34.40,0000 0000 0000 0000 000000
2013-08-04 01:23:51,0.00,0.26,0.00,26.53,29.25,31.69,5.77,31.46,1011.73,2044.98,3399.94,3259.34,3544.00,349.37,318.04,34.41,0000 0000 0000 0000 000000
2013-08-04 01:24:51,0.04,0.26,0.00,26.58,29.25,31.70,5.83,30.96,1011.73,2044.98,3399.96,3259.31,3544.00,350.56,319.02,34.42,0000 0000 0000 0000 000000
2013-08-04 01:25:51,0.01,0.26,0.00,26.58,29.25,31.73,5.81,31.08,1011.72,2044.99,3399.97,3259.16,3543.99,350.12,318.52,34.42,0000 0000 0000 0000 000000
2013-08-04 01:26:51,0.03,0.26,0.00,26.60,29.25,31.71,5.82,31.08,1011.72,2044.96,3399.93,3259.09,3543.96,350.46,319.07,34.43,0000 0000 0000 0000 000000
2013-08-04 01:27:51,-0.01,0.26,0.00,26.58,29.25,31.70,5.84,31.29,1011.72,2044.97,3399.95,3259.06,3543.95,349.43,318.13,34.43,0000 0000 0000 0000 000000
2013-08-04 01:28:51,0.02,0.26,0.00,26.51,29.25,31.70,5.88,31.25,1011.72,2044.96,3399.96,3259.07,3543.97,350.02,319.02,34.44,0000 0000 0000 0000 000000
2013-08-04 01:29:52,-0.03,0.26,0.00,26.56,29.25,31.71,5.86,31.33,1011.70,2044.93,3399.97,3259.08,3543.98,350.00,318.62,34.44,0000 0000 0000 0000 000000
2013-08-04 01:30:52,0.00,0.26,0.00,26.58,29.26,31.73,5.92,31.25,1011.60,2044.95,3399.92,3259.09,3543.97,350.38,318.44,34.45,0000 0000 0000 0000 000000
2013-08-04 01:31:52,0.02,0.26,0.00,26.66,29.27,31.75,5.87,31.29,1011.63,2044.94,3399.85,3259.04,3543.90,349.89,318.47,34.46,0000 0000 0000 0000 000000
2013-08-04 01:32:52,0.00,0.26,0.00,26.64,29.27,31.76,5.75,31.29,1011.68,2044.93,3399.67,3259.01,3543.81,349.04,317.88,34.46,0000 0000 0000 0000 000000
2013-08-04 01:33:52,0.06,0.26,0.00,26.64,29.27,31.75,5.92,31.25,1011.68,2044.94,3399.51,3259.00,3543.86,350.21,318.75,34.47,0000 0000 0000 0000 000000
2013-08-04 01:34:53,0.02,0.26,0.00,26.64,29.27,31.76,5.87,31.13,1011.70,2044.94,3399.58,3259.00,3543.85,348.57,317.20,34.47,0000 0000 0000 0000 000000
2013-08-04 01:35:53,0.00,0.26,0.00,26.53,29.27,31.69,5.78,31.13,1011.73,2044.93,3399.60,3259.00,3543.65,349.73,318.03,34.48,0000 0000 0000 0000 000000
2013-08-04 01:36:53,0.00,0.26,0.00,26.45,29.27,31.68,5.86,31.29,1011.71,2044.95,3399.60,3259.00,3543.53,349.66,317.89,34.49,0000 0000 0000 0000 000000
2013-08-04 01:37:53,0.04,0.26,0.00,26.42,29.27,31.65,5.88,31.25,1011.71,2044.90,3399.49,3259.00,3543.38,349.79,318.52,34.49,0000 0000 0000 0000 000000
2013-08-04 01:38:53,0.00,0.26,0.00,26.46,29.28,31.69,6.00,31.21,1011.68,2044.87,3399.29,3259.00,3543.28,350.49,318.92,34.50,0000 0000 0000 0000 000000
2013-08-04 01:39:54,0.00,0.26,0.00,26.53,29.29,31.72,5.79,31.21,1011.68,2044.88,3399.15,3259.00,3543.28,349.35,318.00,34.50,0000 0000 0000 0000 000000
2013-08-04 01:40:54,0.05,0.26,0.00,26.59,29.30,31.75,5.89,31.33,1011.66,2044.87,3399.09,3259.00,3543.22,350.43,318.93,34.51,0000 0000 0000 0000 000000
2013-08-04 01:41:54,0.00,0.26,0.00,26.60,29.30,31.80,5.87,31.25,1011.66,2044.88,3399.09,3259.00,3543.23,349.70,318.25,34.51,0000 0000 0000 0000 000000
2013-08-04 01:42:54,0.00,0.26,0.00,26.53,29.30,31.83,5.90,31.50,1011.63,2044.74,3399.05,3259.00,3543.12,350.29,318.84,34.52,0000 0000 0000 0000 000000
2013-08-04 01:43:55,-0.11,0.26,0.00,26.57,29.30,31.84,5.91,31.54,1011.62,2044.60,3399.01,3258.99,3543.05,349.87,318.70,34.53,0000 0000 0000 0000 000000
2013-08-04 01:44:55,-0.06,0.26,0.00,26.63,29.30,31.81,5.78,31.46,1011.61,2044.54,3399.00,3258.97,3543.02,349.18,317.59,34.53,0000 0000 0000 0000 000000
2013-08-04 01:45:55,-0.01,0.26,0.00,26.62,29.30,31.79,5.93,31.25,1011.55,2044.60,3399.02,3258.99,3543.01,350.77,319.03,34.54,0000 0000 0000 0000 000000
2013-08-04 01:46:55,0.01,0.26,0.00,26.66,29.30,31.79,5.78,31.17,1011.46,2044.64,3399.01,3258.99,3543.03,349.61,318.04,34.54,0000 0000 0000 0000 000000
2013-08-04 01:47:55,0.01,0.26,0.00,26.67,29.31,31.80,5.95,31.33,1011.50,2044.71,3399.00,3258.99,3543.01,350.16,318.37,34.55,0000 0000 0000 0000 000000
2013-08-04 01:48:56,0.10,0.26,0.00,26.69,29.32,31.79,5.99,31.17,1011.50,2044.66,3399.00,3258.98,3543.01,350.83,318.85,34.56,0000 0000 0000 0000 000000
2013-08-04 01:49:56,-0.08,0.26,0.00,26.71,29.32,31.80,5.82,31.08,1011.51,2044.66,3399.00,3258.99,3543.00,349.41,318.03,34.56,0000 0000 0000 0000 000000
2013-08-04 01:50:56,0.00,0.26,0.00,26.73,29.32,31.78,5.88,31.08,1011.53,2044.56,3399.00,3258.97,3543.00,350.18,318.33,34.57,0000 0000 0000 0000 000000
2013-08-04 01:51:56,-0.03,0.26,0.00,26.69,29.32,31.78,5.97,31.25,1011.60,2044.46,3399.00,3258.97,3543.00,350.26,318.64,34.57,0000 0000 0000 0000 000000
2013-08-04 01:52:56,-0.11,0.26,0.00,26.75,29.32,31.79,5.72,31.13,1011.56,2044.47,3399.00,3258.97,3543.00,349.63,317.99,34.58,0000 0000 0000 0000 000000
2013-08-04 01:53:57,0.04,0.26,0.00,26.77,29.32,31.81,5.87,31.17,1011.56,2044.51,3399.00,3258.96,3543.00,349.66,317.99,34.58,0000 0000 0000 0000 000000
2013-08-04 01:54:57,0.00,0.26,0.00,26.78,29.33,31.82,5.96,31.21,1011.58,2044.48,3399.00,3258.96,3543.01,350.49,318.74,34.59,0000 0000 0000 0000 000000
2013-08-04 01:55:57,-0.02,0.26,0.00,26.79,29.34,31.84,5.93,31.29,1011.62,2044.51,3399.01,3258.97,3543.00,350.48,318.82,34.60,0000 0000 0000 0000 000000
2013-08-04 01:56:57,0.00,0.26,0.00,26.81,29.35,31.79,5.73,31.08,1011.60,2044.41,3399.00,3258.96,3543.00,349.46,317.97,34.60,0000 0000 0000 0000 000000
2013-08-04 01:57:57,-0.07,0.26,0.00,26.81,29.35,31.83,5.82,31.25,1011.60,2044.31,3399.00,3258.93,3543.00,349.95,318.43,34.61,0000 0000 0000 0000 000000
2013-08-04 01:58:58,-0.05,0.26,0.00,26.85,29.35,31.84,5.82,31.04,1011.47,2044.25,3399.00,3258.88,3543.00,350.25,318.42,34.61,0000 0000 0000 0000 000000
2013-08-04 01:59:58,-0.04,0.26,0.00,26.91,29.35,31.87,5.83,31.00,1011.48,2044.17,3399.00,3258.79,3542.99,350.57,319.10,34.62,0000 0000 0000 0000 000000
2013-08-04 02:00:58,-0.02,0.26,0.00,26.86,29.35,31.88,5.81,31.04,1011.43,2044.15,3399.00,3258.80,3542.99,350.92,318.80,34.63,0000 0000 0000 0000 000000
2013-08-04 02:01:58,-0.04,0.26,0.00,26.85,29.36,31.87,5.82,31.17,1011.34,2044.22,3399.00,3258.75,3542.99,349.69,317.87,34.63,0000 0000 0000 0000 000000
2013-08-04 02:02:58,0.08,0.26,0.00,26.87,29.37,31.87,5.80,31.13,1011.39,2044.19,3399.00,3258.76,3542.99,349.40,317.72,34.64,0000 0000 0000 0000 000000
2013-08-04 02:03:59,-0.02,0.26,0.00,26.89,29.37,31.88,5.73,31.13,1011.34,2044.20,3398.99,3258.75,3542.99,350.30,318.38,34.64,0000 0000 0000 0000 000000
2013-08-04 02:04:59,0.02,0.26,0.00,26.92,29.37,31.85,5.98,31.08,1011.34,2044.18,3398.99,3258.59,3542.99,349.36,317.48,34.65,0000 0000 0000 0000 000000
2013-08-04 02:05:59,0.01,0.26,0.00,26.94,29.37,31.90,5.92,31.21,1011.32,2044.14,3398.98,3258.47,3542.99,349.53,317.62,34.65,0000 0000 0000 0000 000000
2013-08-04 02:06:59,-0.02,0.26,0.00,26.89,29.38,31.91,5.87,31.17,1011.30,2044.12,3398.99,3258.34,3542.99,349.76,317.87,34.66,0000 0000 0000 0000 000000
2013-08-04 02:07:59,0.03,0.26,0.00,26.93,29.39,31.92,5.85,31.13,1011.30,2044.08,3398.98,3258.20,3542.96,350.47,318.48,34.67,0000 0000 0000 0000 000000
2013-08-04 02:09:00,-0.01,0.26,0.00,26.95,29.40,31.92,5.80,30.83,1011.27,2044.05,3398.97,3258.08,3542.94,350.18,318.19,34.67,0000 0000 0000 0000 000000
2013-08-04 02:10:00,0.01,0.26,0.00,26.96,29.40,31.90,5.84,31.17,1011.26,2044.06,3398.95,3258.04,3542.91,349.71,317.75,34.68,0000 0000 0000 0000 000000
2013-08-04 02:11:00,0.02,0.26,0.00,26.99,29.40,31.89,5.90,31.17,1011.26,2044.03,3398.93,3258.05,3542.87,349.81,317.80,34.68,0000 0000 0000 0000 000000
2013-08-04 02:12:00,-0.01,0.26,0.00,26.99,29.40,31.90,5.78,31.13,1011.26,2044.02,3398.90,3258.03,3542.82,349.01,317.24,34.69,0000 0000 0000 0000 000000
2013-08-04 02:13:01,0.00,0.26,0.00,26.99,29.40,31.90,5.81,31.13,1011.26,2044.01,3398.91,3258.01,3542.72,349.98,318.20,34.70,0000 0000 0000 0000 000000
2013-08-04 02:14:01,0.00,0.26,0.00,27.02,29.41,31.89,5.88,31.00,1011.26,2044.01,3398.88,3258.01,3542.63,349.73,317.69,34.70,0000 0000 0000 0000 000000
2013-08-04 02:15:01,0.01,0.26,0.00,27.04,29.42,31.90,5.92,30.96,1011.26,2044.00,3398.84,3258.02,3542.59,350.87,318.71,34.71,0000 0000 0000 0000 000000
2013-08-04 02:16:01,0.00,0.26,0.00,27.02,29.42,31.90,5.76,31.08,1011.26,2044.00,3398.79,3258.02,3542.50,348.90,316.94,34.71,0000 0000 0000 0000 000000
2013-08-04 02:17:01,0.01,0.26,0.00,27.06,29.42,31.93,5.87,31.13,1011.26,2044.00,3398.68,3258.00,3542.32,350.13,318.22,34.72,0000 0000 0000 0000 000000
2013-08-04 02:18:01,0.04,0.26,0.00,27.06,29.42,31.92,5.89,31.08,1011.26,2044.00,3398.46,3258.00,3542.13,350.94,318.76,34.72,0000 0000 0000 0000 000000
2013-08-04 02:19:02,0.05,0.26,0.00,27.06,29.43,31.93,5.87,31.21,1011.26,2044.00,3398.25,3258.00,3542.05,349.08,316.94,34.73,0000 0000 0000 0000 000000
2013-08-04 02:20:02,0.04,0.26,0.00,27.06,29.44,31.95,5.98,31.21,1011.25,2044.00,3398.14,3258.00,3542.03,350.38,318.11,34.74,0000 0000 0000 0000 000000
2013-08-04 02:21:02,0.01,0.26,0.00,27.07,29.45,31.95,5.80,31.13,1011.25,2044.00,3398.07,3258.00,3542.02,349.52,317.78,34.74,0000 0000 0000 0000 000000
2013-08-04 02:22:03,0.01,0.26,0.00,27.08,29.45,31.96,5.70,31.13,1011.25,2044.00,3398.03,3258.00,3542.01,349.24,317.18,34.75,0000 0000 0000 0000 000000
2013-08-04 02:23:03,0.00,0.26,0.00,27.08,29.45,31.95,5.87,30.96,1011.25,2044.00,3398.03,3258.00,3542.00,351.10,318.34,34.75,0000 0000 0000 0000 000000
2013-08-04 02:24:03,0.00,0.26,0.00,27.11,29.45,31.97,5.92,31.13,1011.25,2044.00,3398.02,3258.00,3542.00,350.45,317.97,34.76,0000 0000 0000 0000 000000
2013-08-04 02:25:03,0.00,0.26,0.00,27.14,29.47,31.95,5.91,30.96,1011.25,2044.00,3398.00,3257.99,3542.00,349.78,317.60,34.77,0000 0000 0000 0000 000000
2013-08-04 02:26:03,0.00,0.26,0.00,27.15,29.47,31.98,5.91,31.13,1011.25,2044.00,3398.01,3257.94,3542.00,351.03,318.75,34.77,0000 0000 0000 0000 000000
2013-08-04 02:27:03,0.00,0.26,0.00,27.16,29.47,32.00,5.93,31.08,1011.25,2044.00,3398.00,3257.94,3542.00,349.83,317.26,34.78,0000 0000 0000 0000 000000
2013-08-04 02:28:04,0.00,0.26,0.00,27.13,29.47,32.03,5.81,31.17,1011.25,2044.00,3398.00,3257.92,3542.00,349.87,317.70,34.78,0000 0000 0000 0000 000000
2013-08-04 02:29:04,0.00,0.26,0.00,27.13,29.48,31.99,5.76,30.92,1011.24,2043.99,3398.00,3257.88,3542.00,350.34,318.13,34.79,0000 0000 0000 0000 000000
2013-08-04 02:30:04,0.00,0.26,0.00,27.15,29.49,32.01,5.82,31.00,1011.24,2043.99,3398.00,3257.81,3541.99,349.32,317.18,34.80,0000 0000 0000 0000 000000
2013-08-04 02:31:04,0.03,0.26,0.00,27.18,29.50,32.02,5.81,31.21,1011.24,2043.99,3398.00,3257.57,3541.99,349.48,317.29,34.80,0000 0000 0000 0000 000000
2013-08-04 02:32:05,0.05,0.26,0.00,27.20,29.50,32.04,5.82,31.08,1011.24,2043.98,3398.00,3257.35,3541.96,350.38,318.10,34.81,0000 0000 0000 0000 000000
2013-08-04 02:33:05,0.02,0.26,0.00,27.23,29.50,32.04,5.73,31.08,1011.24,2043.97,3398.00,3257.26,3541.93,349.40,317.18,34.81,0000 0000 0000 0000 000000
2013-08-04 02:34:05,0.01,0.26,0.00,27.26,29.50,32.04,5.83,31.00,1011.24,2043.98,3398.00,3257.18,3541.90,349.30,317.30,34.82,0000 0000 0000 0000 000000
2013-08-04 02:35:05,0.02,0.26,0.00,27.24,29.52,32.02,5.90,31.04,1011.24,2043.99,3398.00,3257.10,3541.78,350.19,317.89,34.82,0000 0000 0000 0000 000000
2013-08-04 02:36:06,0.03,0.26,0.00,27.24,29.52,32.04,5.80,31.04,1011.24,2043.97,3398.00,3257.10,3541.67,349.45,317.35,34.83,0000 0000 0000 0000 000000